Eagle, AK

12:54 AM AKDT on August 18, 2017 (GMT -0800)
Eagle

Weather History for PAEG - January, 2014

Change the Weather History Date:

Sunday, January 12, 2014

  Actual Average (PABN) Record (PABN)
Temperature  
Mean Temperature -32 °F -  
Max Temperature -18 °F 0 °F 33 °F (2009)
Min Temperature -45 °F -4 °F -34 °F (2005)
Degree Days  
Heating Degree Days 96    
Moisture  
Dew Point -30 °F    
Average Humidity 66    
Maximum Humidity 73    
Minimum Humidity 56    
Precipitation  
Precipitation 0.00 in - - ()
Sea Level Pressure  
Sea Level Pressure 29.42 in    
Wind  
Wind Speed 3 mph (South)    
Max Wind Speed 14 mph    
Max Gust Speed 22 mph    
Visibility 6 miles    
Events      
Averages and records for this station are not official NWS values.
T = Trace of Precipitation, MM = Missing Value Source: NWS Daily Summary

Daily Weather History Graph

Daily Weather History Graph

Search for Another Location

Airport or City:

Trip Planner

Search our weather history database for the weather conditions in past years. The results will help you decide how hot, cold, wet, or windy it might be!

Date:

Astronomy

Jan. 12, 2014 Rise Set
Actual Time 10:06 AM AKST 3:00 PM AKST
Civil Twilight 8:53 AM AKST 4:13 PM AKST
Nautical Twilight 7:46 AM AKST 5:20 PM AKST
Astronomical Twilight 6:46 AM AKST 6:20 PM AKST
Moon 12:47 PM AKST (1/12) 6:58 AM AKST (1/12)
Length of Visible Light 7h 19m
Length of Day
4h 54m
Waxing Gibbous, 90% of the Moon is Illuminated
Jan 12
Waxing Gibbous
Jan 15
Full
Jan 23
Last Quarter
Jan 30
New
Feb 6
First Quarter

Hourly Weather History & Observations

Time (AKST) Temp. Windchill Dew Point Humidity Pressure Visibility Wind Dir Wind Speed Gust Speed Precip Events Conditions
12:53 AM -38.9 °F - - N/A% 29.52 in 2.5 mi Calm Calm - N/A   Overcast
1:04 AM -38.9 °F - - N/A% 29.39 in 3.0 mi Calm Calm - N/A   Overcast
1:53 AM -40.0 °F - - N/A% 29.51 in 10.0 mi Calm Calm - N/A   Overcast
3:53 AM -42.0 °F - - N/A% 29.52 in 3.0 mi Calm Calm - N/A   Overcast
4:53 AM -41.1 °F - - N/A% 29.51 in 10.0 mi Calm Calm - N/A   Overcast
5:53 AM -43.1 °F - - N/A% 29.48 in 10.0 mi Calm Calm - N/A   Mostly Cloudy
6:06 AM -44.0 °F - - N/A% 29.34 in 9.0 mi Calm Calm - N/A   Partly Cloudy
6:53 AM -45.9 °F - - N/A% 29.46 in 7.0 mi Calm Calm - N/A   Clear
7:53 AM -45.9 °F - - N/A% 29.44 in 7.0 mi Calm Calm - N/A   Partly Cloudy
8:41 AM -45.0 °F -59.3 °F - N/A% 29.29 in 4.0 mi West 3.5 mph - N/A   Haze
8:53 AM -44.0 °F - - N/A% 29.43 in 3.0 mi Calm Calm - N/A   Overcast
9:15 AM -43.1 °F - - N/A% 29.28 in 2.5 mi Calm Calm - N/A   Overcast
9:35 AM -38.9 °F -52.3 °F - N/A% 29.28 in 4.0 mi East 3.5 mph - N/A   Haze
9:42 AM -29.0 °F -49.5 °F -40.0 °F 56% 29.28 in 6.0 mi ESE 8.1 mph - N/A   Haze
9:53 AM -20.0 °F -41.1 °F -27.0 °F 70% 29.40 in 8.0 mi ESE 10.4 mph - N/A   Scattered Clouds
10:03 AM -20.0 °F -44.1 °F -27.9 °F 67% 29.27 in 5.0 mi ESE 13.8 mph 20.7 mph N/A   Haze
10:11 AM -18.9 °F -39.8 °F -27.9 °F 63% 29.28 in 4.0 mi ESE 10.4 mph 20.7 mph N/A   Haze
10:35 AM -18.9 °F -37.2 °F -27.0 °F 66% 29.28 in 9.0 mi ESE 8.1 mph 18.4 mph N/A   Scattered Clouds
10:53 AM -18.9 °F -38.6 °F -27.0 °F 66% 29.39 in 10.0 mi ESE 9.2 mph - N/A   Clear
11:53 AM -18.9 °F -37.2 °F -27.0 °F 66% 29.39 in 10.0 mi ESE 8.1 mph 16.1 mph 0.00 in   Clear
12:53 PM -20.0 °F -38.6 °F -27.9 °F 67% 29.39 in 10.0 mi ESE 8.1 mph 21.9 mph 0.00 in   Clear
1:53 PM -22.0 °F -35.6 °F -29.0 °F 70% 29.41 in 10.0 mi Variable 4.6 mph - 0.00 in   Clear
2:53 PM -24.0 °F -41.8 °F -32.1 °F 66% 29.42 in 10.0 mi East 6.9 mph - N/A   Clear
3:53 PM -27.9 °F -48.2 °F -36.0 °F 65% 29.43 in 10.0 mi East 8.1 mph - N/A   Clear
4:53 PM -27.9 °F -44.7 °F -34.1 °F 73% 29.44 in 10.0 mi ESE 5.8 mph - N/A   Clear
5:53 PM -33.0 °F - - N/A% 29.46 in 10.0 mi Calm Calm - N/A   Clear
6:53 PM -36.9 °F -50.1 °F - N/A% 29.49 in 10.0 mi WSW 3.5 mph - N/A   Clear
7:19 PM -36.9 °F -50.1 °F - N/A% 29.36 in 5.0 mi WSW 3.5 mph - N/A   Haze
7:27 PM -36.9 °F -53.0 °F - N/A% 29.36 in 3.0 mi WSW 4.6 mph - N/A   Mostly Cloudy
7:53 PM -38.0 °F -54.3 °F - N/A% 29.51 in 4.0 mi West 4.6 mph - N/A   Haze
8:53 PM -38.9 °F -55.3 °F - N/A% 29.53 in 4.0 mi WSW 4.6 mph - N/A   Haze
9:02 PM -38.9 °F -55.3 °F - N/A% 29.40 in 5.0 mi WSW 4.6 mph - N/A   Haze
9:12 PM -38.9 °F -52.3 °F - N/A% 29.41 in 4.0 mi West 3.5 mph - N/A   Haze
9:39 PM -38.9 °F -55.3 °F - N/A% 29.42 in 2.5 mi West 4.6 mph - N/A   Overcast
9:46 PM -38.9 °F - - N/A% 29.43 in 3.0 mi Calm Calm - N/A   Overcast
9:53 PM -38.9 °F - - N/A% 29.55 in 3.0 mi Calm Calm - N/A   Overcast
10:46 PM -42.0 °F -58.9 °F - N/A% 29.46 in 2.0 mi West 4.6 mph - N/A   Overcast
10:53 PM -41.1 °F -57.8 °F - N/A% 29.58 in 3.0 mi West 4.6 mph - N/A   Overcast
11:01 PM -41.1 °F -54.8 °F - N/A% 29.46 in 4.0 mi West 3.5 mph - N/A   Haze
11:46 PM -42.0 °F - - N/A% 29.48 in 8.0 mi Calm Calm - N/A   Scattered Clouds
11:53 PM -43.1 °F - - N/A% 29.60 in 8.0 mi Calm Calm - N/A   Partly Cloudy